Location: Unspecified
(44.0683°N, 0.0000°E)
Time: 13:54:39
(UTC+00:00)

ITAMSAT 1 - Visible Passes

Search period start: 04 April 2026 00:00
Search period end: 14 April 2026 00:00
Orbit: 781 x 793 km, 98.7° (Epoch: 29 March)

Date Brightness Start Highest point End Pass type
(mag) Time Alt. Az. Time Alt. Az. Time Alt. Az.
4 Apr 7.9 20:51:33 49° ENE 20:51:34 49° ENE 20:56:34 10° N visible
4 Apr 9.7 22:32:12 21° WNW 22:32:12 21° WNW 22:35:15 10° NW visible
5 Apr 8.7 20:20:43 27° ENE 20:21:26 28° ENE 20:25:47 10° N visible
5 Apr 8.8 22:01:23 39° WNW 22:01:23 39° WNW 22:05:34 10° NNW visible
6 Apr 9.4 19:49:54 14° ENE 19:51:26 16° ENE 19:54:31 10° NNE visible
6 Apr 7.7 21:30:33 73° WNW 21:30:33 73° WNW 21:35:26 10° NNW visible
7 Apr 7.7 20:59:43 57° E 20:59:53 58° ENE 21:05:00 10° N visible
7 Apr 9.8 22:40:23 18° W 22:40:23 18° W 22:43:19 10° NW visible
8 Apr 8.5 20:28:54 30° E 20:29:43 32° ENE 20:34:18 10° N visible
8 Apr 8.9 22:09:33 34° W 22:09:33 34° W 22:13:48 10° NNW visible
9 Apr 9.2 19:58:04 16° E 19:59:41 19° ENE 20:03:12 10° NNE visible
9 Apr 7.9 21:38:44 65° W 21:38:44 65° W 21:43:46 10° NNW visible
10 Apr 9.7 19:28:55 10° ENE 19:29:48 10° NE 19:30:40 10° NE visible
10 Apr 7.5 21:07:54 66° E 21:08:13 68° ENE 21:13:25 10° N visible
10 Apr 9.9 22:48:33 16° W 22:48:33 16° W 22:51:16 10° NW visible
11 Apr 8.3 20:37:05 34° E 20:38:01 37° ENE 20:42:47 10° N visible
11 Apr 9.1 22:17:44 29° W 22:17:44 29° W 22:22:01 10° NW visible
12 Apr 9.1 20:06:16 18° E 20:07:56 22° ENE 20:11:49 10° NNE visible
12 Apr 8.1 21:46:55 55° WSW 21:46:56 55° W 21:52:05 10° NNW visible
13 Apr 9.6 19:35:58 10° E 19:38:00 12° NE 19:40:03 10° NNE visible
13 Apr 7.5 21:16:05 72° SE 21:16:33 80° ENE 21:21:48 10° NNW visible
13 Apr 10.1 22:56:45 13° W 22:56:45 13° W 22:59:03 10° WNW visible
